sat.trackr.live / text

‹ back to catalog

STARLINK-3619

NORAD 51787 · 2022-017V

PAYLOAD ACTIVE UNKNOWN

§ Identity

Operator
Country
US
Launch date
2022-02-25
Launch site
AFWTR
Launch vehicle
Mass (kg)
RCS (m²)

Purposes: comms

External: N2YO · Heavens-Above · Gunter

§ Orbital elements

Epoch: 2026-09-19T04:59:16.716768Z

Period
93.85 min
Inclination
53.1588°
Eccentricity
0.0001739
Mean motion
15.34353700 rev/d
Perigee alt
461.7 km
Apogee alt
464.0 km
Semi-major
6,841.0 km
B*
2.0169e-4
RAAN
183.4150°
Arg perigee
86.5215°
Mean anomaly
273.5986°
Rev number
25,172

§ Raw data

STARLINK-36191 51787U 22017V   26262.20783237  .00006434  00000+0  20169-3 0  99972 51787  53.1588 183.4150 0001739  86.5215 273.5986 15.34353700251727

JSON: /api/v1/satellites/51787 · /tle

For live sub-satellite position, see the globe view (requires WebGL).

§ Visibility from observer

Set your observer location to see the next 7 days of passes ≥ 10°. The values pass through the URL so the page stays shareable.

No JS? Fill the form by hand. The geolocation button needs JavaScript.